Meath Environmental Platform

Observations for Trim Market St

Time AQI Temp °C Hum % Pres Pa CO μg/m³ H₂S μg/m³ NO μg/m³ NO₂ μg/m³ O₃ μg/m³ SO₂ μg/m³ PM1 μg/m³ PM2.5 μg/m³ PM10 μg/m³
Saturday 11 July 2026
18:38 1 27.8 50 56,984 0 3.28 0 8.63 17.82 0 4.28 7.06 10.5
18:37 1 27.8 51 57,021 0 6.43 0 10.12 12.92 0 3.56 7.56 10.5
18:36 1 27.8 50 57,022 0 7.77 0 14.43 25.72 0 7.13 9.11 12.73
18:35 1 27.8 50 56,984 0 8.09 0 15.43 24.82 0 4.28 7.57 9.76
18:34 1 27.8 50 56,934 0 7.98 0 13.64 9.99 0 6.41 9.63 13.47
18:29 1 28 50 57,060 0 9.79 0 15.62 32.91 0 5.7 8.11 10.51
18:27 1 28 50 57,091 0 12.08 0 11.52 9.89 0 5.7 8.11 11.25
18:25 1 28.1 50 56,867 0 14.14 0 15.33 28.34 0 5.7 8.64 11.26
18:24 1 28.1 50 56,781 0 13.07 0 14.75 27.35 0 4.99 8.14 12.02
18:17 1 28.4 49 56,845 0 16.8 0 16.44 21.29 0 4.99 8.69 11.28
18:14 1 28.6 48 56,689 0 18.05 0 16.84 30.08 0 3.56 5.62 6.77
18:13 1 28.6 48 56,627 0 18.18 0 16.45 34.81 0 4.99 8.21 10.55
18:11 1 28.7 48 56,511 0 18.31 0 16.65 34.17 0 4.28 8.22 10.55
18:10 1 28.8 48 56,432 0 17.88 0 15.13 23.47 0 4.99 6.67 9.04
18:09 1 28.8 48 56,401 0 19.59 0 16.64 22.55 0 3.56 6.68 9.04
18:08 1 28.8 48 56,323 0 20.07 0 17.36 34.6 0 6.41 9.79 13.6
18:07 1 29 48 56,229 0 19.58 0 16.83 25.29 0 4.28 7.73 9.81
18:06 1 29 48 56,164 0 20.01 0 17.64 20.91 0 4.28 7.74 10.57
18:04 1 29.1 47 56,029 0 23.19 0 21.95 19.1 0 4.99 7.76 9.81
18:01 1 29.3 47 55,924 0 22.12 0 18.93 29.95 0 4.28 7.26 9.82